GW3885 Weather Reports


Display with metric or nautical units.
time (UTC)temp
F
wind
direction
speed
MPH
gust
MPH
rain 1hr
in
rain 24hr
in
rain mn
in
humidity
%
barometer
mb
20260504081608 56 132 2.0 5.0 0.00 0.00 0.00 91 1015.5
20260504081057 56 134 2.0 5.0 0.00 0.00 0.00 90 1015.7
20260504080556 56 128 2.0 4.0 0.00 0.00 0.00 89 1015.6
20260504080112 57 121 2.0 4.0 0.00 0.00 0.00 89 1015.6
20260504050555 61 128 4.0 7.0 0.00 0.00 0.00 82 1017.8
20260504045600 61 148 4.0 9.0 0.00 0.00 0.00 82 1018.1
20260504045056 61 161 3.0 9.0 0.00 0.00 0.00 83 1018.0
20260504044609 61 138 3.0 9.0 0.00 0.00 0.00 83 1018.1
20260504044054 61 147 4.0 9.0 0.00 0.00 0.00 84 1018.2
20260504043555 61 154 5.0 8.0 0.00 0.00 0.00 84 1018.2
20260504043056 61 134 4.0 8.0 0.00 0.00 0.00 85 1018.2
20260504042556 60 136 4.0 9.0 0.00 0.00 0.00 86 1018.3
20260504042057 60 163 4.0 9.0 0.00 0.00 0.00 86 1018.2
20260504041558 60 118 4.0 8.0 0.00 0.00 0.00 87 1018.2
20260504041056 60 169 3.0 7.0 0.00 0.00 0.00 87 1018.3
20260504040556 60 138 3.0 5.0 0.00 0.00 0.00 86 1018.4
20260504040115 60 143 2.0 5.0 0.00 0.00 0.00 86 1018.4
20260504035559 60 145 2.0 6.0 0.00 0.00 0.00 86 1018.4
20260504035056 60 146 2.0 6.0 0.00 0.00 0.00 86 1018.3
20260504034607 60 130 2.0 7.0 0.00 0.00 0.00 86 1018.3
20260504034056 60 150 2.0 7.0 0.00 0.00 0.00 85 1018.2
20260504033558 60 140 3.0 5.0 0.00 0.00 0.00 85 1018.2
20260504033056 61 146 2.0 6.0 0.00 0.00 0.00 84 1018.3
20260504032555 61 151 2.0 6.0 0.00 0.00 0.00 83 1018.3
20260504032058 61 156 1.0 5.0 0.00 0.00 0.00 83 1018.4
20260504031553 61 136 1.0 5.0 0.00 0.00 0.00 82 1018.3
20260504031057 62 142 1.0 5.0 0.00 0.00 0.00 81 1018.2
20260504030558 62 146 2.0 4.0 0.00 0.00 0.00 80 1018.2
20260504030055 63 156 2.0 5.0 0.00 0.00 0.00 80 1018.1
20260504025559 63 148 2.0 5.0 0.00 0.00 0.00 80 1018.2
20260504025056 63 142 2.0 5.0 0.00 0.00 0.00 78 1018.2
20260504024558 64 138 2.0 7.0 0.00 0.00 0.00 78 1018.2
20260504024055 64 144 3.0 7.0 0.00 0.00 0.00 77 1018.0
20260504023556 64 148 3.0 7.0 0.00 0.00 0.00 77 1018.1
20260504023058 64 140 3.0 8.0 0.00 0.00 0.00 76 1017.9
20260504022557 64 129 3.0 8.0 0.00 0.00 0.00 76 1017.8
20260504022058 64 123 3.0 8.0 0.00 0.00 0.00 76 1017.6
20260504021556 65 146 4.0 8.0 0.00 0.00 0.00 76 1017.6
20260504021055 65 148 4.0 7.0 0.00 0.00 0.00 75 1017.7
20260504020555 65 132 3.0 8.0 0.00 0.00 0.00 75 1017.8
20260504020056 65 142 4.0 8.0 0.00 0.00 0.00 74 1017.6
20260504015556 66 126 4.0 8.0 0.00 0.00 0.00 73 1017.7
20260504015055 66 128 3.0 8.0 0.00 0.00 0.00 73 1017.7
20260504014556 66 134 4.0 7.0 0.00 0.00 0.00 72 1017.7
20260504014056 66 113 3.0 8.0 0.00 0.00 0.00 71 1017.6
20260504013556 66 134 3.0 8.0 0.00 0.00 0.00 71 1017.5
20260504013113 67 128 4.0 9.0 0.00 0.00 0.00 70 1017.6
20260504012556 67 155 4.0 9.0 0.00 0.00 0.00 69 1017.7
20260504012055 67 146 3.0 8.0 0.00 0.00 0.00 68 1017.7
20260504011554 68 130 3.0 8.0 0.00 0.00 0.00 67 1017.6
20260504011055 68 132 4.0 8.0 0.00 0.00 0.00 66 1017.6
20260504010555 69 119 3.0 8.0 0.00 0.00 0.00 66 1017.6
20260504010105 70 129 3.0 8.0 0.00 0.00 0.00 65 1017.7
20260504005556 70 126 2.0 8.0 0.00 0.00 0.00 64 1017.7
20260504005057 70 137 3.0 10.0 0.00 0.00 0.00 62 1017.8
20260504004609 71 129 4.0 10.0 0.00 0.00 0.00 61 1017.7
20260504004056 71 142 4.0 10.0 0.00 0.00 0.00 59 1017.7
20260504003555 72 131 4.0 10.0 0.00 0.00 0.00 58 1017.7
20260504003059 72 117 6.0 12.0 0.00 0.00 0.00 57 1017.7
20260504002556 72 118 6.0 13.0 0.00 0.00 0.00 56 1017.8
20260504002056 73 137 7.0 13.0 0.00 0.00 0.00 55 1017.8
20260504001608 73 141 6.0 13.0 0.00 0.00 0.00 54 1017.9
20260504001055 74 126 6.0 13.0 0.00 0.00 0.00 53 1017.9
20260504000557 74 105 6.0 14.0 0.00 0.00 0.00 53 1017.8
20260504000132 75 68 8.0 19.0 0.00 0.00 0.00 52 1017.8
20260503235557 75 93 8.0 19.0 0.00 0.00 0.00 51 1017.7
20260503235059 76 126 8.0 15.0 0.00 0.00 0.00 51 1017.8
20260503234600 76 94 7.0 15.0 0.00 0.00 0.00 51 1017.8
20260503234057 76 94 7.0 15.0 0.00 0.00 0.00 50 1017.8
20260503233556 77 101 8.0 15.0 0.00 0.00 0.00 50 1017.7
20260503233103 77 101 7.0 16.0 0.00 0.00 0.00 51 1017.6
20260503232555 77 121 8.0 16.0 0.00 0.00 0.00 50 1017.7
20260503232055 78 103 8.0 15.0 0.00 0.00 0.00 50 1017.8
20260503231559 78 86 8.0 15.0 0.00 0.00 0.00 49 1017.8
20260503231057 78 125 8.0 15.0 0.00 0.00 0.00 51 1017.7
20260503230557 78 140 8.0 15.0 0.00 0.00 0.00 49 1017.9
20260503225556 79 89 6.0 14.0 0.00 0.00 0.00 49 1018.0
20260503225056 79 138 6.0 14.0 0.00 0.00 0.00 46 1018.2
20260503224553 79 107 7.0 14.0 0.00 0.00 0.00 49 1018.0
20260503224056 79 111 6.0 13.0 0.00 0.00 0.00 47 1018.3
20260503223557 79 84 8.0 14.0 0.00 0.00 0.00 48 1018.2
20260503223057 79 104 8.0 15.0 0.00 0.00 0.00 46 1018.2
20260503222555 80 114 9.0 15.0 0.00 0.00 0.00 44 1018.2
20260503222056 80 115 6.0 11.0 0.00 0.00 0.00 40 1018.3
20260503221608 80 97 6.0 12.0 0.00 0.00 0.00 40 1018.3
20260503221056 80 132 6.0 12.0 0.00 0.00 0.00 41 1018.3
20260503220556 80 127 4.0 14.0 0.00 0.00 0.00 42 1018.5
20260503220107 80 142 8.0 14.0 0.00 0.00 0.00 43 1018.4
20260503215555 80 122 7.0 13.0 0.00 0.00 0.00 43 1018.4
20260503215138 80 103 5.0 13.0 0.00 0.00 0.00 44 1018.6
20260503214556 81 157 5.0 13.0 0.00 0.00 0.00 43 1018.6
20260503214055 82 91 6.0 13.0 0.00 0.00 0.00 42 1018.6
20260503213555 82 78 6.0 11.0 0.00 0.00 0.00 42 1018.6
20260503213057 81 102 5.0 16.0 0.00 0.00 0.00 45 1018.7
20260503212552 81 184 4.0 16.0 0.00 0.00 0.00 40 1018.8
20260503212053 81 124 5.0 13.0 0.00 0.00 0.00 43 1018.9
20260503211555 81 103 8.0 13.0 0.00 0.00 0.00 42 1018.9
20260503211052 81 147 5.0 11.0 0.00 0.00 0.00 44 1019.0
20260503210556 81 146 4.0 16.0 0.00 0.00 0.00 38 1019.2
20260503210053 81 165 6.0 16.0 0.00 0.00 0.00 37 1019.2
20260503205553 81 123 9.0 16.0 0.00 0.00 0.00 44 1019.2
20260503205056 81 121 7.0 14.0 0.00 0.00 0.00 42 1019.4
20260503204601 81 130 9.0 14.0 0.00 0.00 0.00 40 1019.4
20260503204052 81 138 3.0 14.0 0.00 0.00 0.00 42 1019.6
20260503203553 81 143 6.0 15.0 0.00 0.00 0.00 38 1019.6
20260503203058 81 138 8.0 15.0 0.00 0.00 0.00 40 1019.7
20260503202555 81 100 5.0 11.0 0.00 0.00 0.00 44 1019.8
20260503202056 81 103 5.0 12.0 0.00 0.00 0.00 42 1019.9
20260503201556 81 211 5.0 12.0 0.00 0.00 0.00 42 1020.0
20260503201052 81 92 7.0 12.0 0.00 0.00 0.00 43 1020.0
20260503200552 81 149 5.0 12.0 0.00 0.00 0.00 40 1020.1
20260503195555 81 142 5.0 12.0 0.00 0.00 0.00 42 1020.1
20260503195052 82 123 5.0 12.0 0.00 0.00 0.00 44 1020.2
20260503194559 81 123 5.0 10.0 0.00 0.00 0.00 43 1020.1
20260503194056 81 149 4.0 9.0 0.00 0.00 0.00 40 1020.3
20260503193554 82 126 3.0 11.0 0.00 0.00 0.00 43 1020.3
20260503193058 82 88 4.0 11.0 0.00 0.00 0.00 40 1020.4
20260503192556 81 95 4.0 12.0 0.00 0.00 0.00 43 1020.5
20260503192056 81 154 4.0 13.0 0.00 0.00 0.00 40 1020.5
20260503191555 81 178 5.0 13.0 0.00 0.00 0.00 42 1020.6
20260503191053 81 113 7.0 13.0 0.00 0.00 0.00 42 1020.6
20260503190556 81 144 6.0 13.0 0.00 0.00 0.00 41 1020.7
20260503190057 81 105 7.0 12.0 0.00 0.00 0.00 40 1020.6
20260503185552 81 103 6.0 10.0 0.00 0.00 0.00 39 1020.8
20260503185057 81 106 6.0 12.0 0.00 0.00 0.00 37 1021.0
20260503184604 81 225 5.0 13.0 0.00 0.00 0.00 40 1021.1
20260503184053 81 146 4.0 13.0 0.00 0.00 0.00 44 1021.1
20260503183553 81 127 8.0 13.0 0.00 0.00 0.00 39 1021.1
20260503183056 81 182 5.0 9.0 0.00 0.00 0.00 43 1021.1
20260503182556 81 166 4.0 9.0 0.00 0.00 0.00 44 1021.3
20260503182055 80 147 5.0 9.0 0.00 0.00 0.00 41 1021.5
20260503181601 80 113 4.0 9.0 0.00 0.00 0.00 42 1021.5
20260503181056 80 116 4.0 10.0 0.00 0.00 0.00 45 1021.7
20260503180556 80 153 5.0 10.0 0.00 0.00 0.00 40 1021.7
20260503180111 80 99 4.0 11.0 0.00 0.00 0.00 43 1021.9
20260503175555 80 154 5.0 11.0 0.00 0.00 0.00 43 1022.0
20260503175056 80 126 3.0 8.0 0.00 0.00 0.00 44 1022.1
20260503174554 80 134 2.0 10.0 0.00 0.00 0.00 45 1022.1
20260503174059 79 76 2.0 10.0 0.00 0.00 0.00 44 1022.1
20260503173556 79 105 5.0 10.0 0.00 0.00 0.00 47 1022.3
20260503173105 79 166 3.0 10.0 0.00 0.00 0.00 44 1022.3
20260503172556 79 108 6.0 10.0 0.00 0.00 0.00 44 1022.4
20260503172055 79 223 3.0 12.0 0.00 0.00 0.00 43 1022.4
20260503171558 79 190 2.0 12.0 0.00 0.00 0.00 45 1022.5
20260503171055 78 115 4.0 10.0 0.00 0.00 0.00 50 1022.5
20260503170556 78 87 7.0 10.0 0.00 0.00 0.00 46 1022.5
20260503170108 78 64 6.0 10.0 0.00 0.00 0.00 45 1022.6
20260503160116 78 145 4.0 11.0 0.00 0.00 0.00 41 1023.0
20260503150556 75 111 2.0 7.0 0.00 0.00 0.00 56 1022.8
20260503131055 61 27 2.0 4.0 0.00 0.00 0.00 85 1022.1
20260503130555 60 27 1.0 5.0 0.00 0.00 0.00 90 1022.1
20260503110556 53 0 0.0 0.0 0.00 0.00 0.00 95 1020.8